Regional Weather Roundup
Issued by NWS Little Rock, AR

Home | Current Version | Previous Version | Graphics & Text | Print | Product List | Glossary On
Versions: 1 2 3 4 5 6 7 8 9 10 11 12 13 14 15 16 17 18 19 20 21 22 23 24 25 26 27 28 29 30 31 32 33 34 35 36 37 38 39 40 41 42 43 44 45 46 47 48 49 50
000
ASUS44 KLZK 051605
RWRLZK

WEATHER ROUNDUP FOR ARKANSAS
NATIONAL WEATHER SERVICE LITTLE ROCK AR
1100 AM CDT THU MAY 05 2016

NOTE: "FAIR" INDICATES FEW OR NO CLOUDS BELOW 12,000 FEET WITH NO
SIGNIFICANT WEATHER AND/OR OBSTRUCTIONS TO VISIBILITY.

ARZ001-003-010-029-051700-
NORTHWEST ARKANSAS

CITY           SKY/WX    TMP DP  RH WIND       PRES   REMARKS
FAYETTEVILLE   SUNNY     67  44  43 NW10      30.09S
FORT SMITH     SUNNY     69  42  37 W9        30.08S
HARRISON       SUNNY     66  41  40 NW8G22    30.06S
BENTONVILLE    SUNNY     66  37  34 N7        30.10S
ROGERS         SUNNY     66  40  38 NW14      30.09S
SILOAM SPGS    SUNNY     66  41  39 N9        30.10S
HIGHFILL       SUNNY     69  39  33 NW13G21   30.09S
SPRINGDALE     SUNNY     66  37  34 N13G22    30.10F
$$

ARZ004-005-016-051700-
NORTH CENTRAL ARKANSAS

CITY           SKY/WX    TMP DP  RH WIND       PRES   REMARKS
BATESVILLE     SUNNY     66  43  42 NW7       30.02F
FLIPPIN        SUNNY    N/A N/A N/A NW12G18   30.01F
MTN HOME       SUNNY     66  41  40 VRB6      30.03S
$$

ARZ040-041-051700-
WEST CENTRAL ARKANSAS

CITY           SKY/WX    TMP DP  RH WIND       PRES   REMARKS
MENA           SUNNY     70  36  28 N8        30.08F
MOUNT IDA      SUNNY     71  39  31 N7        30.04S
$$

ARZ009-017-025-026-028-051700-
NORTHEAST ARKANSAS

CITY           SKY/WX    TMP DP  RH WIND       PRES   REMARKS
CORNING          N/A     66  37  34 NW16      30.00S
JONESBORO      SUNNY     65  38  36 N9G17     29.99S
NEWPORT        SUNNY     67  38  34 N13       30.02S
WALNUT RIDGE   SUNNY     64  37  36 N14       30.00S
BLYTHEVILLE    SUNNY     67  41  38 N22G28    29.98R
$$

ARZ022-023-033-042-044-051700-
CENTRAL ARKANSAS

CITY           SKY/WX    TMP DP  RH WIND       PRES   REMARKS
LITTLE ROCK    SUNNY     71  41  33 NW12      30.03F
N LITTLE ROCK    N/A     67  43  41 N6        30.02S
JACKSONVILLE   SUNNY     69  42  36 NW9G17    30.02S
SEARCY         SUNNY     69  43  38 NW14G20   30.02F
HOT SPRINGS    SUNNY     70  38  31 NE9       30.05S
RUSSELLVILLE   SUNNY     68  41  37 NW7       30.04F
CLINTON        FAIR      68  39  34 NW7       30.03F
$$

ARZ036-051700-
EAST ARKANSAS

CITY           SKY/WX    TMP DP  RH WIND       PRES   REMARKS
WEST MEMPHIS   SUNNY     66  45  46 N10       29.98R
$$

ARZ050-053-066-070-073-051700-
SOUTHWEST ARKANSAS

CITY           SKY/WX    TMP DP  RH WIND       PRES   REMARKS
ARKADELPHIA    FAIR      71  43  36 N8        30.06R
CAMDEN         SUNNY     72  39  30 NW8       30.05S
TEXARKANA      SUNNY     71  45  39 CALM      30.07S
EL DORADO      SUNNY     70  45  40 NW9       30.05S
DE QUEEN       SUNNY     71  43  36 NE6       30.06S
$$

ARZ056-057-069-051700-
SOUTHEAST ARKANSAS

CITY           SKY/WX    TMP DP  RH WIND       PRES   REMARKS
PINE BLUFF     SUNNY     69  37  30 NW12      30.03S
STUTTGART      SUNNY     70  45  40 NW14      30.02S
MONTICELLO     SUNNY     70  40  33 NW8       30.02F

$$





USA.gov is the U.S. government's official web portal to all federal, state and local government web resources and services.